,

(GMT )
Cape Race

Weather History for CWRA - November, 2013

Change the Weather History Date:

Monday, November 11, 2013

  Actual Average Record
Temperature  
Mean Temperature 38 °F -  
Max Temperature 48 °F - - ()
Min Temperature 28 °F - - ()
Degree Days  
Heating Degree Days 27    
Moisture  
Dew Point 40 °F    
Average Humidity 92    
Maximum Humidity 99    
Minimum Humidity 82    
Precipitation  
Precipitation 0.47 in - - ()
Sea Level Pressure  
Sea Level Pressure 29.56 in    
Wind  
Wind Speed 15 mph ()    
Max Wind Speed 34 mph    
Max Gust Speed 47 mph    
T = Trace of Precipitation, MM = Missing Value Source: Averaged Metar Reports

Daily Weather History Graph

Daily Weather History Graph

Search for Another Location

Airport or City:

Trip Planner

Search our weather history database for the weather conditions in past years. The results will help you decide how hot, cold, wet, or windy it might be!

Date:

Astronomy

Nov. 11, 2013 Rise Set
Actual Time 6:59 AM NST 4:33 PM NST
Civil Twilight 6:26 AM NST 5:05 PM NST
Nautical Twilight 5:50 AM NST 5:41 PM NST
Astronomical Twilight 5:14 AM NST 6:17 PM NST
Moon 1:30 PM NST 12:15 AM NST
Length of Visible Light 10h 39m
Length of Day
9h 33m
Waxing Gibbous, 65% of the Moon is Illuminated
Nov 11
Waxing Gibbous
Nov 17
Full
Nov 25
Last Quarter
Dec 2
New
Dec 9
First Quarter

Hourly Weather History & Observations

Time (NST) Temp. Windchill Dew Point Humidity Pressure Visibility Wind Dir Wind Speed Gust Speed Precip Events Conditions
12:30 AM 31.5 °F - 29.1 °F 91% 30.07 in - NE 2.3 mph - N/A   Unknown
1:30 AM 35.4 °F 30.5 °F 33.4 °F 92% 30.04 in - NNE 5.8 mph - N/A   Unknown
2:30 AM 38 °F - 36 °F 90% 30.01 in - NE 9.2 mph - -  
2:30 AM 38.1 °F 31.7 °F 36.1 °F 93% 30.01 in - NE 9.2 mph - N/A   Unknown
3:30 AM 37.2 °F 29.6 °F 35.8 °F 95% 29.98 in - NE 11.5 mph - N/A   Unknown
4:30 AM 42.1 °F 35.7 °F 39.9 °F 92% 29.94 in - East 11.5 mph - N/A   Unknown
5:30 AM 43 °F - 39 °F 82% 29.91 in - ESE 15.0 mph - -  
5:30 AM 43.2 °F 35.9 °F 39.4 °F 86% 29.91 in - ESE 15.0 mph 21.9 mph N/A   Unknown
6:30 AM 44.2 °F 37.3 °F 40.3 °F 86% 29.87 in - ESE 15.0 mph 21.9 mph N/A   Unknown
7:30 AM 43.0 °F 33.5 °F 40.1 °F 90% 29.79 in - East 24.2 mph 31.1 mph N/A   Unknown
8:30 AM 43 °F - 40 °F 87% 29.72 in - ESE 21.9 mph - -  
8:30 AM 42.6 °F 33.5 °F 40.5 °F 92% 29.72 in - ESE 21.9 mph 38.0 mph 0.11 in   Unknown
9:30 AM 42.3 °F 30.9 °F 41.2 °F 96% 29.58 in - East 34.5 mph 43.7 mph 0.13 in   Unknown
10:30 AM 41.9 °F 30.7 °F 41.2 °F 97% 29.52 in - East 32.2 mph 47.2 mph 0.18 in   Unknown
11:30 AM 43 °F - 42 °F 96% 29.44 in - East 23.0 mph - -  
11:30 AM 42.6 °F 33.3 °F 42.3 °F 99% 29.44 in - East 23.0 mph 34.5 mph 0.16 in   Unknown
12:30 PM 45.7 °F 37.1 °F 45.3 °F 99% 29.31 in - ESE 24.2 mph 33.4 mph N/A   Unknown
1:30 PM 47.7 °F - 47.3 °F 99% 29.25 in - South 17.3 mph 26.5 mph N/A   Unknown
2:30 PM 48 °F - 45 °F 85% 29.21 in - South 19.6 mph - -  
2:30 PM 48.2 °F - 45.0 °F 89% 29.21 in - South 19.6 mph - N/A   Unknown
3:30 PM 47.1 °F - 42.8 °F 85% 29.16 in - South 27.6 mph 33.4 mph N/A   Unknown
4:30 PM 45.5 °F 36.0 °F 43.9 °F 94% 29.08 in - South 29.9 mph 35.7 mph N/A   Unknown
5:30 PM 44 °F - 44 °F 98% 29.05 in - West 3.5 mph - -  
5:30 PM 44.4 °F 42.9 °F 43.7 °F 97% 29.05 in - West 3.5 mph - N/A   Unknown
6:30 PM 44.4 °F 35.3 °F 43.9 °F 98% 29.16 in - NW 25.3 mph 34.5 mph 0.03 in   Unknown
7:30 PM 39.6 °F 27.9 °F 38.3 °F 95% 29.26 in - NW 29.9 mph 39.1 mph N/A   Unknown
8:30 PM 37 °F - 36 °F 94% 29.38 in - NW 29.9 mph - -  
8:30 PM 37.4 °F 25.0 °F 36.0 °F 95% 29.38 in - NW 29.9 mph 41.4 mph N/A   Unknown
9:30 PM 36.3 °F 24.7 °F 34.5 °F 93% 29.49 in - NW 24.2 mph 31.1 mph N/A   Unknown
10:30 PM 37.2 °F 25.2 °F 34.7 °F 91% 29.59 in - NW 27.6 mph 35.7 mph N/A   Unknown
11:30 PM 39 °F - 36 °F 83% 29.67 in - NW 23.0 mph - -  
11:30 PM 38.7 °F 28.0 °F 35.6 °F 89% 29.67 in - NW 23.0 mph 32.2 mph N/A   Unknown